Beckley, WV

4:49 PM EST on December 06, 2019 (GMT -0500)
Raleigh County Memorial

Weather History for KBKW - November, 2019

Change the Weather History Date:

Thursday, November 14, 2019

  Actual Average Record
Temperature  
Mean Temperature 33 °F 44 °F  
Max Temperature 45 °F 54 °F 78 °F (1993)
Min Temperature 21 °F 35 °F 8 °F (1986)
Degree Days  
Heating Degree Days 32 20  
Month to date heating degree days 364 255  
Since 1 July heating degree days 630 761  
Cooling Degree Days 0 0  
Month to date cooling degree days 0 0  
Year to date cooling degree days 948 556  
Moisture  
Dew Point 13 °F    
Average Humidity 47    
Maximum Humidity 69    
Minimum Humidity 30    
Precipitation  
Precipitation 0.00 in 0.10 in 1.25 in (1915)
Month to date precipitation 0.46 1.34  
Year to date precipitation 39.12 36.58  
Snow  
Snow 0.00 in 0.10 in 12.00 in (1908)
Month to date snowfall 1.8 0.8  
Since 1 September snowfall 1.8 1.2  
Snow Depth 0.00 in    
Sea Level Pressure  
Sea Level Pressure 30.33 in    
Wind  
Wind Speed 6 mph ()    
Max Wind Speed 15 mph    
Max Gust Speed 24 mph    
Visibility 10.0 miles    
Events      
T = Trace of Precipitation, MM = Missing Value Source: Averaged Metar Reports

Daily Weather History Graph

Daily Weather History Graph

Search for Another Location

Airport or City:

Astronomy

Nov. 14, 2019 Rise Set
Actual Time 7:03 AM EST 5:13 PM EST
Civil Twilight 6:35 AM EST 5:41 PM EST
Nautical Twilight 6:03 AM EST 6:13 PM EST
Astronomical Twilight 5:32 AM EST 6:44 PM EST
Moon 7:00 PM EST (11/14) 8:56 AM EST (11/14)
Length of Visible Light 11h 06m
Length of Day
10h 10m
Waning Gibbous, 95% of the Moon is Illuminated
Nov 14
Waning Gibbous
Nov 19
Last Quarter
Nov 26
New
Dec 4
First Quarter
Dec 12
Full

Hourly Weather History & Observations

Time (EST) Temp. Windchill Dew Point Humidity Pressure Visibility Wind Dir Wind Speed Gust Speed Precip Events Conditions
12:51 AM 26.1 °F 16.2 °F 9.0 °F 49% 30.30 in 10.0 mi SE 10.4 mph - N/A   Clear
1:51 AM 26.1 °F 14.5 °F 8.1 °F 47% 30.31 in 10.0 mi SSE 13.8 mph 21.9 mph N/A   Clear
2:51 AM 26.1 °F 16.8 °F 8.1 °F 47% 30.29 in 10.0 mi SE 9.2 mph - N/A   Clear
3:51 AM 26.1 °F 16.2 °F 7.0 °F 44% 30.29 in 10.0 mi SE 10.4 mph 19.6 mph N/A   Clear
4:51 AM 25.0 °F 18.1 °F 8.1 °F 49% 30.32 in 10.0 mi ESE 5.8 mph - N/A   Clear
5:51 AM 23.0 °F 17.0 °F 8.1 °F 53% 30.34 in 10.0 mi SE 4.6 mph - N/A   Clear
6:51 AM 24.1 °F - 7.0 °F 48% 30.36 in 10.0 mi Calm Calm - N/A   Clear
7:51 AM 23.0 °F 18.4 °F 10.0 °F 58% 30.38 in 10.0 mi East 3.5 mph - N/A   Clear
8:51 AM 27.0 °F 23.0 °F 10.0 °F 49% 30.38 in 10.0 mi ESE 3.5 mph - N/A   Clear
9:51 AM 32.0 °F 28.7 °F 10.9 °F 42% 30.37 in 10.0 mi Variable 3.5 mph - N/A   Clear
10:51 AM 36.0 °F - 15.1 °F 43% 30.36 in 10.0 mi Calm Calm - N/A   Clear
11:51 AM 39.0 °F 34.0 °F 12.9 °F 34% 30.33 in 10.0 mi SW 6.9 mph - N/A   Clear
12:51 PM 42.1 °F 36.6 °F 15.1 °F 34% 30.30 in 10.0 mi SW 9.2 mph 17.3 mph N/A   Clear
1:51 PM 43.0 °F 38.2 °F 15.1 °F 32% 30.28 in 10.0 mi WSW 8.1 mph - N/A   Clear
3:51 PM 43.0 °F 38.2 °F 14.0 °F 31% 30.28 in 10.0 mi SW 8.1 mph - N/A   Clear
4:51 PM 41.0 °F 37.1 °F 14.0 °F 33% 30.29 in 10.0 mi SW 5.8 mph - N/A   Clear
5:51 PM 35.1 °F - 16.0 °F 46% 30.33 in 10.0 mi Calm Calm - N/A   Clear
6:51 PM 34.0 °F 31.0 °F 16.0 °F 48% 30.33 in 10.0 mi SSE 3.5 mph - N/A   Clear
7:51 PM 30.9 °F - 17.1 °F 57% 30.35 in 10.0 mi Calm Calm - N/A   Clear
8:51 PM 30.0 °F - 17.1 °F 59% 30.35 in 10.0 mi Calm Calm - N/A   Clear
9:51 PM 30.0 °F - 17.1 °F 59% 30.34 in 10.0 mi Calm Calm - N/A   Clear
10:51 PM 30.0 °F - 18.0 °F 61% 30.33 in 10.0 mi Calm Calm - N/A   Clear
11:51 PM 27.0 °F 23.0 °F 18.0 °F 69% 30.34 in 10.0 mi South 3.5 mph - N/A   Clear